NIMIQ 5

Last updated on Wed Nov 05 2025 00:02:46 GMT+0000 (Coordinated Universal Time)

1 35873U 09050A 25308.49005602 -.00000244 00000+0 00000+0 0 9993 2 35873 0.0241 270.0376 0003277 323.2804 274.4192 1.00269745 59097
UTC large
Height (km)
Speed (km/s)
/
Latitude / Longitude
Inclination (degrees)
Orbital Period (minutes)
Azimuth
Elevation
Range (km)
Doppler Factor

Next 0 passes for location: London (51.5072 / 0.1276)

Sorry there are no passes over London.